Flag for Sweden Weather past 2 weeks in Stockholm, Sweden

Now
63 °F

Passing clouds.


Feels Like: 63 °F
Forecast: 56 / 69 °F
Wind: 8 mph from East

Location: Stockholm Bromma Airport

Current Time: Jul 6, 2015 at 5:45:32 AM

Latest Report: Jul 6, 2015 at 4:50 AM


Visibility: N/A

Pressure: 29.92 "Hg

Humidity: 73%

Dew point: 54 °F

Location of StockholmLocation

Historic Weather in Stockholm — Graph

°F

Stockholm temperature yesterday

Maximum temperature yesterday: 73 °F (at 12:20 PM)
Minimum temperature yesterday: 63 °F (at 2:20 AM)
Average temperature yesterday: 68 °F

Past Weeks' High & Low Weather Summary

 TemperatureHumidityPressure
High84 °F (Jul 2, 3:50 PM)100% (Jun 21, 4:20 AM)30.36 "Hg (Jun 21, 4:20 AM)
Low45 °F (Jun 21, 4:20 AM)30% (Jul 2, 1:20 PM)29.56 "Hg (Jun 24, 1:50 AM)
Average63 °F68%29.96 "Hg
* Reported Jun 21 4:20 AM — Jul 6 4:20 AM, Stockholm, Weather by CustomWeather, © 2015

Note: Actual official high and low records may vary slightly from our data, if they occured in-between our weather recording intervals... More about our weather records

Advertising

Stockholm weather history for previous 24 hours

 ConditionsComfort  
Time TempWeatherWind HumidityBarometerVisibility
4:20 AM
Mon, Jul 6
63 °FPassing clouds.9 mph73%29.95 "HgN/A
3:50 AM61 °FCool.8 mph77%29.95 "HgN/A
3:20 AM61 °FCool.9 mph77%29.95 "HgN/A
2:50 AM61 °FCool.8 mph77%29.98 "HgN/A
2:20 AM63 °FMild.9 mph73%29.98 "HgN/A
1:50 AM61 °FCool.8 mph77%29.98 "HgN/A
1:20 AM61 °FCool.8 mph77%29.98 "HgN/A
12:50 AM63 °FMild.8 mph73%30.01 "HgN/A
12:20 AM63 °FMild.9 mph68%30.01 "HgN/A
11:50 PM
Sun, Jul 5
63 °FMild.9 mph68%30.01 "HgN/A
11:20 PM63 °FMild.10 mph64%30.01 "HgN/A
10:50 PM63 °FMild.10 mph64%30.04 "HgN/A
10:20 PM64 °FMild.10 mph60%30.01 "HgN/A
9:50 PM64 °FSunny.9 mph56%30.01 "Hg10 mi
9:20 PM66 °FSunny.10 mph52%30.01 "Hg10 mi
8:50 PM66 °FSunny.10 mph56%30.04 "Hg10 mi
8:20 PM68 °FSunny.9 mph56%30.04 "Hg10 mi
7:50 PM70 °FSunny.9 mph53%30.04 "Hg10 mi
7:20 PM70 °FPassing clouds.9 mph57%30.04 "HgN/A
6:50 PM72 °FSunny.10 mph53%30.04 "Hg10 mi
6:20 PM72 °FPassing clouds.9 mph53%30.04 "HgN/A
5:50 PM72 °FSunny.13 mph53%30.04 "Hg10 mi
5:20 PM72 °FSunny.14 mph53%30.07 "Hg10 mi
4:50 PM73 °FSunny.13 mph50%30.07 "Hg10 mi
4:20 PM73 °FSunny.12 mph50%30.07 "Hg10 mi
3:50 PM73 °FSunny.13 mph50%30.07 "Hg10 mi
3:20 PM73 °FSunny.10 mph47%30.07 "Hg10 mi
2:50 PM73 °FSunny.10 mph47%30.07 "Hg10 mi
2:20 PM73 °FPassing clouds.10 mph44%30.07 "HgN/A
1:50 PM73 °FSunny.12 mph47%30.07 "Hg10 mi
1:20 PM73 °FSunny.9 mph47%30.09 "Hg10 mi
12:50 PM73 °FSunny.9 mph47%30.09 "Hg10 mi
12:20 PM73 °FSunny.13 mph44%30.09 "Hg10 mi
11:50 AM72 °FSunny.14 mph50%30.09 "Hg10 mi
11:20 AM72 °FSunny.15 mph50%30.09 "Hg10 mi
10:50 AM72 °FSunny.16 mph50%30.09 "Hg10 mi
10:20 AM70 °FPartly sunny.13 mph57%30.09 "HgN/A
9:50 AM70 °FPartly sunny.13 mph53%30.07 "HgN/A
9:20 AM68 °FPartly sunny.13 mph56%30.07 "HgN/A
8:50 AM68 °FPartly sunny.14 mph56%30.07 "HgN/A
8:20 AM68 °FPartly sunny.12 mph64%30.09 "HgN/A
7:50 AM66 °FOvercast.12 mph68%30.09 "HgN/A
7:20 AM68 °FOvercast.13 mph60%30.09 "HgN/A
6:50 AM66 °FScattered clouds.12 mph73%30.09 "HgN/A
6:20 AM64 °FPartly sunny.9 mph78%30.07 "HgN/A
5:50 AM63 °FOvercast.8 mph83%30.07 "HgN/A
5:20 AM64 °FPartly sunny.8 mph78%30.07 "HgN/A
Weather by CustomWeather, © 2015

See weather overviewHow to use our weather pages